Location: Betpouey
(42.8833°N, 0.0333°E)
Time: 06:26:46
(UTC+00:00)

Meteor 2-13 Rocket - Pass Details

Date: 25 June 2021
Orbit: 935 x 958 km, 82.5° (Epoch: 26 July)

Event Time Altitude Azimuth Distance (km) Brightness Sun altitude
Exits shadow 01:47:17 12° 261° (W) 2,519 6.3 -19.5°
Maximum altitude 01:50:23 17° 295° (WNW) 2,207 6.3 -19.2°
Drops below altitude 10° 01:54:20 10° 335° (NNW) 2,698 7.3 -18.9°
Sets 01:57:50 0° 355° (N) 3,646 8.5 -18.6°
